This is the latest recevied weather packets stored in our database for station/object KG7MRB. If no packets are shown the sender has not sent any weather packets the latest 10 day(s).
| Time | Temp. | Humidity | Pressure | Rain* | Wind** | Luminosity | Snow |
|---|---|---|---|---|---|---|---|
| 1777071945 | 17.78° C | 24% | 1035.3 hPa | 0 mm | - | 483 W/m² | - |
| 1777071642 | 18.33° C | 23% | 1035.4 hPa | 0 mm | - | 494 W/m² | - |
| 1777071338 | 17.78° C | 22% | 1035.4 hPa | 0 mm | - | 504 W/m² | - |
| 1777071033 | 17.78° C | 23% | 1035.5 hPa | 0 mm | - | 515 W/m² | - |
| 1777070730 | 17.78° C | 21% | 1035.7 hPa | 0 mm | - | 525 W/m² | - |
| 1777070427 | 17.22° C | 23% | 1035.6 hPa | 0 mm | - | 534 W/m² | - |
| 1777070126 | 17.78° C | 21% | 1035.6 hPa | 0 mm | - | 525 W/m² | - |
| 1777069821 | 17.78° C | 23% | 1035.8 hPa | 0 mm | - | 364 W/m² | - |
| 1777069519 | 17.22° C | 20% | 1035.8 hPa | 0 mm | - | 559 W/m² | - |
| 1777069217 | 17.78° C | 21% | 1035.7 hPa | 0 mm | - | 530 W/m² | - |
| 1777068913 | 17.22° C | 18% | 1036 hPa | 0 mm | - | 583 W/m² | - |
| 1777068608 | 17.78° C | 21% | 1036.2 hPa | 0 mm | - | 598 W/m² | - |
| 1777068303 | 17.78° C | 18% | 1036.1 hPa | 0 mm | - | 607 W/m² | - |
| 1777067997 | 17.78° C | 19% | 1036.1 hPa | 0 mm | - | 604 W/m² | - |
| 1777067697 | 17.22° C | 19% | 1035.9 hPa | 0 mm | - | 620 W/m² | - |
| 1777067390 | 16.67° C | 20% | 1036.2 hPa | 0 mm | - | 601 W/m² | - |
| 1777067085 | 16.67° C | 19% | 1036.5 hPa | 0 mm | - | 465 W/m² | - |
| 1777066781 | 16.67° C | 19% | 1036.5 hPa | 0 mm | - | 563 W/m² | - |
| 1777066477 | 16.11° C | 20% | 1036.6 hPa | 0 mm | - | 553 W/m² | - |
| 1777066172 | 16.11° C | 21% | 1036.7 hPa | 0 mm | - | 231 W/m² | - |
| 1777065872 | 16.67° C | 20% | 1036.6 hPa | 0 mm | - | 547 W/m² | - |
| 1777065567 | 16.11° C | 20% | 1036.8 hPa | 0 mm | - | 608 W/m² | - |
| 1777065262 | 16.11° C | 19% | 1037.2 hPa | 0 mm | - | 394 W/m² | - |
| 1777064959 | 16.67° C | 21% | 1036.8 hPa | 0 mm | - | 315 W/m² | - |
| 1777064656 | 16.67° C | 19% | 1037.1 hPa | 0 mm | - | 488 W/m² | - |
* Rain latest hour (hover to see other rain measurements)
** Current wind speed in m/s (hover to see current wind gust speed)